Regional Weather Roundup
Issued by NWS Wakefield, VA

Home | Current Version | Previous Version | Text Only | Print | Product List | Glossary Off
Versions: 1 2 3 4 5 6 7 8 9 10 11 12 13 14 15 16 17 18 19 20 21 22 23 24 25 26 27

000
ASUS41 KAKQ 021915
RWRAKQ

REGIONAL WEATHER ROUNDUP
NATIONAL WEATHER SERVICE WAKEFIELD VA
300 PM EDT MON MAY 02 2016

Note: "fair" indicates few or no clouds below 12,000 feet with no
significant weather and/or obstructions to visibility. * = Denotes
station may not report precipitation (e.g., rain,snow,etc.),
thunder or fog.

VAZ042-051-052>054-056-022000-
NORTHERN VIRGINIA

CITY           SKY/WX    TMP DP  RH WIND       PRES   REMARKS
WASH NATIONAL  NOT AVBL
DULLES         FAIR      76  64  66 S12       29.87F
FORT BELVOIR   FAIR      72  63  74 SE9       29.88F
QUANTICO       FAIR      70  64  81 S3        29.89F
FREDERICKSBRG* FAIR      81  69  66 S10       29.87F
STAFFORD*      FAIR      78  65  64 S5        29.92F
WARRENTON      FAIR      81  62  53 S6        29.87F
CULPEPER*      FAIR      82  67  61 S5        29.87F
MANASSAS*      SUNNY     75  64  69 S8        29.88F
LEESBURG*      FAIR      79  66  65 S12G22    29.88F
WINCHESTER     PTSUNNY   82  55  39 SW9       29.85F
FRONT ROYAL*   FAIR      82  57  42 W6        29.84F
LURAY*         FAIR      82  59  44 S7        29.86S
$$

VAZ048-049-060>072-079>083-022000-
CENTRAL AND SOUTH CENTRAL VIRGINIA

CITY           SKY/WX    TMP DP  RH WIND       PRES   REMARKS
RICHMOND       FAIR      83  64  52 SW13      29.89F
CHESTERFIELD*  FAIR      84  61  45 SW9G21    29.90F
PETERSBURG*    FAIR      86  62  43 SW8       29.90F
HANOVER        FAIR      83  64  52 SW8       29.90F
TAPPAHANNOCK*  FAIR      83  66  56 SW8       29.90F
QUINTON*       FAIR      83  66  55 SW6       29.89F
CHARLOTTSVILLE FAIR      86  57  37 VRB5      29.86F
GORDONSVILLE*  FAIR      83  66  55 S6G17     29.85F
ORANGE*        FAIR      82  63  51 SW13G18   29.88F
LOUISA*        FAIR      86  68  54 S7        29.87F
BUMPASS*       FAIR      82  66  58 S6        29.87F
FARMVILLE*     FAIR      85  61  43 S10G17    29.88F
CREWE*         CLOUDY    82  65  56 SW3       29.90F
FORT PICKETT*  NOT AVBL
CHASE CITY*    FAIR      85  62  45 CALM      29.91F
CLARKSVILLE*   MOCLDY    84  63  48 S7        29.90F
SOUTH HILL*    FAIR      82  68  61 S8G17     29.97F
LAWRENCEVILLE* FAIR      83  66  56 SW6       29.91F
EMPORIA*       FAIR      84  66  54 S10       29.93F
$$

VAZ088>098-022000-
SOUTHEAST VIRGINIA

CITY           SKY/WX    TMP DP  RH WIND       PRES   REMARKS
NORFOLK        FAIR      86  65  49 SW10      29.91F
VIRGINIA BEACH PTSUNNY   89  66  46 SW13      29.91F
NORFOLK NAVAL  PTSUNNY   84  66  54 SW10G16   29.92F
WEST POINT*    FAIR      84  63  49 SW8       29.90F
SALUDA*        FAIR      78  69  74 CALM      29.89F
NEWPORT NEWS   FAIR      84  68  58 SW13      29.91F
LANGLEY AFB    MOSUNNY   84  68  59 SW12      29.90F
FORT EUSTIS    FAIR      83  67  57 S7        29.89F
WILLIAMSBURG*  FAIR      86  66  51 SW9       29.91F
HR EXEC AP*    FAIR      86  68  54 W9        29.93F
FRANKLIN*      PTSUNNY   83  67  56 SW9       29.92F
US460-WAKEFLD  FAIR      84  65  52 VRB5      29.91F
$$

VAZ020-022-025-037-045-022000-
WEST CENTRAL AND SOUTHWEST VIRGINIA

CITY           SKY/WX    TMP DP  RH WIND       PRES   REMARKS
STAUNTON*      FAIR      84  56  38 SW9G18    29.90F
WAYNESBORO*    FAIR      81  56  41 SW12      29.91F
HOT SPRINGS VA PTSUNNY   73  52  47 W12G20    30.00F
LYNCHBURG      FAIR      82  61  48 S9G20     29.91F
DANVILLE       FAIR      83  63  50 SW7       29.91F
SOUTH BOSTON*  FAIR      83  62  47 S8        29.91F
MARTINSVILLE   PTSUNNY   80  61  53 SW8       29.93F
ROANOKE        FAIR      83  58  42 SW7       29.91F
BLACKSBURG     FAIR      77  60  55 W6        29.98F
DUBLIN*        PTSUNNY   79  59  50 SW6       29.96F
MARION*        FAIR      77  56  48 W15G21    30.00F
HILLSVILLE*    CLOUDY    73  61  65 S7G17     29.98F
RICHLANDS*     FAIR      76  66  73 SW9       29.97F
WISE*          CLOUDY    72  54  53 S10       29.99F
ABINGDON*      PTSUNNY   76  58  53 W8        29.96F
$$

MDZ021>025-VAZ099-100-022000-
SOUTHERN MARYLAND AND THE DELMARVA PENINSULA

CITY           SKY/WX    TMP DP  RH WIND       PRES   REMARKS
PATUXENT RIVER MOSUNNY   76  64  66 W10       29.89F
BAY BRIDGE APT NOT AVBL
LEONARDTOWN    MOSUNNY   72  63  73 W6        29.92F
DOVER          CLOUDY    65  64  97 E6        29.90S
GEORGETOWN     MOSUNNY   76  65  68 SW14      29.90F
EASTON         PTSUNNY  N/A N/A N/A SW5       29.94F
CAMBRIDGE      SUNNY     72  64  78 S5        29.90F
SALISBURY      MOSUNNY   76  66  71 SW12      29.90F
OCEAN CITY     SUNNY     67  62  84 S8        29.91F
WALLOPS ISLAND FAIR      74  66  76 S9        29.92S
ACCOMACK*      FAIR      79  64  61 SW8       29.91F
$$

NCZ012>017-030>032-022000-
NORTH CENTRAL AND EASTERN NORTH CAROLINA

CITY           SKY/WX    TMP DP  RH WIND       PRES   REMARKS
ROANOKE RAPIDS MOCLDY    81  68  65 S10G16    29.94F
RALEIGH        PTSUNNY   83  67  58 SW7G16    29.94F
ELIZABETH CITY MOSUNNY   83  68  60 SW12      29.94F
AHOSKIE*       SUNNY     80  67  64 S6        29.94F
EDENTON*       SUNNY     84  69  61 SW12      29.96F
CURRITUCK*     MOSUNNY   84  68  58 S9G21     29.94F
KILL DEVIL HLS MOSUNNY   88  67  48 S3        29.95F
MANTEO         NOT AVBL
CAPE HATTERAS  CLOUDY    76  69  79 SW12      30.01F
TARBORO*       FAIR      84  68  59 SW8       29.96F
GOLDSBORO      MOSUNNY   86  72  62 SW10      29.94F
WASHINGTON     MOSUNNY   83  69  63 S9        29.96F
GREENVILLE     MOSUNNY   82  70  65 SW10      29.98F
NEW BERN       PTSUNNY   81  69  67 S9        29.98F THUNDER
WILMINGTON     PTSUNNY   84  68  58 S15       29.99F
$$

VAZ048-022000-
ELSEWHERE

CITY           SKY/WX    TMP DP  RH WIND       PRES   REMARKS
HARRISBURG PA  CLOUDY    60  55  83 SE5       29.88F HAZE
BALTIMORE      MOSUNNY   70  61  73 E12       29.88F
ANNAPOLIS      SUNNY     61  59  93 SE12      29.90F FOG
ANDREWS AFB    FAIR      72  63  72 S7        29.88F
PHILADELPHIA   CLOUDY    58  53  84 VRB5      29.92F
HENDERSON NC   MOSUNNY   82  66  57 S12       29.92F
GREENSBORO     PTSUNNY   83  61  47 SW13G20   29.93F
ROCKY MOUNT    MOSUNNY   83  68  60 SW12      29.95F
$$

VAZ100-022000-
MARINE

STATION/POSITION TIME  TEMP    WIND        PRES    WAVE   SWELL
                       AIR SEA DIR/SP/G            HT/PER HT/PER
                 (UTC) (F)     (DEG/KT/KT) (MB)    (FT/S) (FT/S)
BRANDYWINE LGT   1800   53     140/  6/  7 1013.0F
CAPE MAY NJ      1800   60 58  190/  3/  4 1012.6F
LEWES DE         1800   63 55   50/  5/  7 1012.5F
15NM E FENWICK I 1850   55 53              1012.8F   4/ 6
OCEAN-CITY-INLET 1800   58 56  190/  7/ 11 1012.6F
WACHAPREAGUE VA  1800   77 61  200/  8/ 13 1012.9F
THOMAS POINT MD  1900   60 58  140/  4/  5 1013.7F
GOOSES REEF MD   1800   59 58  170/  8/ 12 1013.8F   1/ 2
COVE POINT MD    1800   58     180/ 10/ 11 1013.4F
SOLOMONS ISLAND  1800   69 60  250/ 10/ 12   N/A
BISHOPS HEAD MD  1800   65 60  220/  6/  6 1012.6F
PINEY POINT MD   1800          140/  3/  4   N/A
POTOMAC MD       1800   61 60  100/  4/  6 1012.2F   1
CAMBRIDGE MD     1800   70 60  220/  7/ 11 1012.1F
LEWISETTA VA     1800   62 60   90/  5/  5 1012.8F
RAPPAHANNOCK LGT 1800          180/  9/  9 1013.9F
STINGRAY PT      1800   64 63  130/  4/  4 1013.6F   0
YORK RVR RNG VA  1800   75     210/  2/  3 1013.1F
YORKTOWN VA      1800   79 63  240/  7/ 12 1013.2F
JAMESTOWN VA     1800   77 67  230/  4/  6   N/A     0
DOMINION TERM VA 1800   74     260/  5/  7 1013.7F
KIPTOPEKE VA     1800      63  240/  4/  5   N/A
CHES BAY BRIDGE  1800   75 63  280/  8/  8 1013.5F
CAPE HENRY VA    1800   73     330/  7/  7   N/A
CHESAPEAKE LGHT  1800   71     310/  1/  2 1014.9F
WILLOUBY STN VA  1800   76     240/  9/  9 1014.7F
CAPE HENRY BUOY  1812      65                N/A     3/11   2/11
CAPE CHARLES BUO 1826      62                N/A     3/11   3/11
OFFSHORE WE BUOY 1821      57                N/A     4/11   3/11
64NM E OF VA BCH 1850   58 54  200/ 10/ 12 1014.4F   4/11   3/11
DUCK PIER NC     1800   78 58  220/ 12/ 15 1014.2F
44100 DUCK FRF   1824      62                N/A     4/11   2/11
44056 DUCK FRF   1811      60                N/A     3/11   2/11
OREGON INLET NC  1800   73 69  180/ 15/ 19 1015.3F
HATTERAS NC      1800   74 68  200/ 14/ 18 1016.4F
DIAMOND SHLS NC  1850   75 74  220/ 17/ 21 1016.2F   4/11   3/11
CAPE LOOKOUT NC  1800   75     200/ 13/ 18 1016.C1F1C2F2C3F3C4F4C5F5C6F6C7F7C8M1C9!



USA.gov is the U.S. government's official web portal to all federal, state and local government web resources and services.